Location: Fountain Hills
(33.6120°N, 111.7170°W)
Time: 03:21:13
(UTC-07:00)

Hamsat - Visible Passes

Search period start: 27 January 2015 00:00
Search period end: 06 February 2015 00:00
Orbit: 590 x 626 km, 97.6° (Epoch: 26 January)

Date Brightness Start Highest point End Pass type
(mag) Time Alt. Az. Time Alt. Az. Time Alt. Az.
27 Jan ? 06:07:09 10° N 06:11:20 80° WNW 06:15:29 10° SSW visible
27 Jan ? 18:34:10 10° WSW 18:36:14 13° W 18:38:03 10° WNW visible
28 Jan ? 06:20:55 10° N 06:24:59 52° WNW 06:29:01 10° SSW visible
29 Jan ? 05:00:20 10° ENE 05:02:29 14° E 05:04:51 10° SE visible
29 Jan ? 06:34:47 10° N 06:38:36 35° WNW 06:42:23 10° SW visible
30 Jan ? 05:13:11 10° NE 05:16:17 21° E 05:19:31 10° SE visible
30 Jan ? 06:48:47 10° NNW 06:52:12 24° WNW 06:55:32 10° SW visible
31 Jan ? 05:26:22 10° NE 05:30:03 30° E 05:33:46 10° SSE visible
01 Feb ? 05:39:45 10° NNE 05:43:46 45° E 05:47:47 10° S visible
02 Feb ? 05:53:16 10° NNE 05:57:26 69° E 06:01:36 10° S visible
03 Feb ? 06:06:54 10° N 06:11:05 78° WNW 06:15:16 10° SSW visible
03 Feb ? 18:34:07 10° WSW 18:36:01 12° W 18:37:40 10° WNW visible
04 Feb ? 06:20:39 10° N 06:24:42 51° WNW 06:28:45 10° SSW visible
05 Feb ? 04:59:58 10° ENE 05:02:13 15° E 05:04:40 10° SE visible
05 Feb ? 06:34:29 10° N 06:38:19 34° WNW 06:42:06 10° SW visible
